Current weather by "City, St" or "zip code"  
 

Current Conditions: Seminole, Gaines County Airport, TX

Fair


70.0 F

Last Updated on May 21 2022, 2:15 am CDT
Humidity: 16%
Wind Speed: SW 4.6 mph
Barometer 29.80 in
Dewpoint: 21.0 F
Visibility: 10.00 mi
Precip: --
Heat Index: NA
Wind Chill: NA
Current conditions at:

Seminole, Gaines County Airport, TX (KGNC)

Lat: 32.67528 Lon: 102.6525

Local Radar Image active severe weather and emergency alerts image image weather storm and storm spotter reports image weather observation monitoring service image
Local
Radar
Active
Alerts
Storm Reports Obs
Monitoring

Sign-up For Email & Text Message Weather Alert Notification Services



Advertise Here

Observation History for Seminole, Gaines County Airport, TX


Time Wind
(mph)
Vis
(mi)
Weather Precip (in) Temperature (F) Relative
Humidity
Wind
Chill
(F)
Heat
Index
(F)
Pressure
Air Dwpt altimeter
(in)
sea level
(mb)
Rmks
2:15 am CDT SW 4.6 10.00 Fair -- 70.0 21.0 16% NA NA 29.80 M
1:55 am CDT SW 6.9 10.00 Fair -- 71.0 21.0 15% NA NA 29.80 M
1:35 am CDT SW 8.1 10.00 Fair -- 72.0 21.2 15% NA NA 29.79 M
1:15 am CDT SW 8.1 10.00 Fair -- 73.0 21.2 14% NA NA 29.79 M
12:55 am CDT SW 9.2 10.00 Fair -- 75.0 21.6 14% NA NA 29.79 M
12:15 am CDT W 10.4 10.00 Fair -- 75.0 21.6 13% NA NA 29.78 M
11:55 pm CDT W 9.2 10.00 Fair -- 72.0 20.8 14% NA NA 29.78 M
11:35 pm CDT SW 6.9 10.00 Fair -- 74.0 20.3 13% NA NA 29.78 M
11:15 pm CDT SW 5.8 10.00 Fair -- 73.0 21.4 14% NA NA 29.77 M
10:55 pm CDT W 4.6 10.00 Fair -- 73.0 20.8 14% NA NA 29.76 M
10:35 pm CDT S 3.5 10.00 Fair -- 77.0 22.3 13% NA NA 29.75 M
9:35 pm CDT S 5.8 10.00 Fair -- 82.0 22.8 11% NA 80 29.71 M
9:15 pm CDT SW 5.8 10.00 Fair -- 84.0 23.4 11% NA 81 29.71 M
8:55 pm CDT SW 8.1 10.00 Fair -- 86.0 22.5 9% NA 83 29.70 M
8:35 pm CDT SW 11.5 10.00 Fair -- 88.0 21.9 9% NA 84 29.69 M
8:15 pm CDT SW 15.0 G 19.6 10.00 Fair -- 90.0 21.7 8% NA 86 29.69 M
7:55 pm CDT SW 15.0 10.00 Fair -- 91.0 22.3 8% NA 87 29.69 M
7:35 pm CDT SW 21.9 G 29.9 10.00 Fair and Breezy -- 92.0 20.7 7% NA 88 29.68 M
7:15 pm CDT SW 19.6 G 32.2 10.00 Fair -- 92.0 21.7 8% NA 88 29.68 M
6:55 pm CDT SW 19.6 G 27.6 10.00 Fair -- 93.0 25.2 9% NA 88 29.68 M
4:55 pm CDT W 20.7 G 29.9 10.00 Fair and Breezy -- 94.0 24.4 8% NA 89 29.69 M
4:15 pm CDT SW 17.3 G 28.8 10.00 Fair -- 96.0 26.1 8% NA 91 29.68 M
3:55 pm CDT SW 17.3 G 29.9 10.00 Fair -- 95.0 25.2 8% NA 90 29.69 M
3:35 pm CDT SW 18.4 G 28.8 10.00 Fair -- 95.0 24.6 8% NA 90 29.69 M

Regional Weather Observation


Hobbs / Lea County, NM (KHOB)

Fair
66.0 F

Andrews County Airport, TX (KE11)

Fair
71.0 F

Midland, Midland Airpark, TX (KMDD)

Fair
74.0 F

Lamesa Municipal Airport, TX (KLUV)

Fair
72.0 F

Odessa, Odessa-Schlemeyer Field, TX (KODO)

Fair
73.0 F

Midland, Midland International Airport, TX (KMAF)

Fair
76.0 F

Advertise Here


Advertise Here